Location: Zagreb
(45.8000°N, 16.0000°E)
Time: 23:57:39
(UTC+01:00)

CUTE-I - Visible Passes

Search period start: 30 October 2020 00:00
Search period end: 09 November 2020 00:00
Orbit: 810 x 825 km, 98.7° (Epoch: 30 October)

Date Brightness Start Highest point End Pass type
(mag) Time Alt. Az. Time Alt. Az. Time Alt. Az.
30 Oct ? 05:15:46 10° NE 05:19:48 21° E 05:23:48 10° SE visible
30 Oct ? 18:20:08 10° SSW 18:24:39 28° W 18:29:11 10° NW visible
31 Oct ? 04:55:24 10° ENE 04:58:03 14° E 05:00:42 10° ESE visible
31 Oct ? 17:58:01 10° S 18:03:01 42° W 18:08:04 10° NNW visible
01 Nov ? 17:36:12 10° S 17:41:27 65° WSW 17:46:46 10° NNW visible
02 Nov ? 05:50:38 10° NNE 05:55:43 42° E 06:00:47 10° S visible
02 Nov ? 17:14:40 10° SSE 17:19:58 84° ENE 17:25:20 10° NNW visible
02 Nov ? 18:58:03 10° WSW 19:00:41 14° W 19:03:20 10° WNW visible
03 Nov ? 05:29:32 10° NE 05:34:05 28° E 05:38:39 10° SSE visible
03 Nov ? 18:34:58 10° SW 18:38:56 21° W 18:42:57 10° NW visible
04 Nov ? 05:08:44 10° NE 05:12:24 18° E 05:16:03 10° SE visible
04 Nov ? 18:12:33 10° SSW 18:17:16 32° W 18:22:01 10° NNW visible
05 Nov ? 04:48:46 10° ENE 04:50:38 12° E 04:52:29 10° ESE visible
05 Nov ? 17:50:33 10° S 17:55:40 49° W 18:00:50 10° NNW visible
06 Nov ? 06:04:40 10° NNE 06:09:57 55° E 06:15:12 10° S visible
06 Nov ? 17:28:50 10° S 17:34:08 75° WSW 17:39:29 10° NNW visible
07 Nov ? 05:43:25 10° NNE 05:48:22 36° E 05:53:17 10° SSE visible
07 Nov ? 17:07:23 10° SSE 17:12:40 74° ENE 17:18:00 10° N visible
07 Nov ? 18:50:04 10° SW 18:53:16 16° W 18:56:30 10° NW visible
08 Nov ? 05:22:24 10° NE 05:26:43 24° E 05:31:01 10° SSE visible
08 Nov ? 18:27:16 10° SSW 18:31:32 25° W 18:35:52 10° NW visible
